{"data":{"norad_id":63367,"epoch":"2026-05-25T04:55:38.047872Z","epoch_age_seconds":57463,"freshness":"FRESH","line1":"1 63367U 25063E   26145.20530148  .00015052  00000+0  51913-3 0  9996","line2":"2 63367  53.1577  67.0266 0001090  84.5051 275.6074 15.30210554 66284","mean_motion":15.30210554,"eccentricity":0.000109,"inclination_deg":53.1577,"raan_deg":67.0266,"arg_perigee_deg":84.5051,"mean_anomaly_deg":275.6074,"bstar":0.00051913,"rev_number":6628,"period_min":94.104696653399,"perigee_km":474.43654531807,"apogee_km":475.93056919956,"semimajor_km":6853.3205572588,"source":"CELESTRAK","updated_at":"2026-05-25T13:38:19.962174Z"}}